Weather History for Jackson Hawkins Field, MS

Change the Weather History Date:

Saturday, December 8, 2012

  Actual Average (KJAN) Record (KJAN)
Temperature  
Mean Temperature 65 °F 49 °F  
Max Temperature 71 °F 60 °F 82 °F (1922)
Min Temperature 59 °F 38 °F 19 °F (1965)
Degree Days  
Heating Degree Days 0 16  
Month to date heating degree days 122  
Since 1 July heating degree days 530  
Cooling Degree Days 0 0  
Month to date cooling degree days 0  
Year to date cooling degree days 2253  
Growing Degree Days 15 (Base 50)    
Moisture  
Dew Point 60 °F    
Average Humidity 93    
Maximum Humidity 100    
Minimum Humidity 68    
Precipitation  
Precipitation 0.01 in 0.18 in 3.00 in (1978)
Month to date precipitation 1.43  
Year to date precipitation 50.42  
Sea Level Pressure  
Sea Level Pressure 29.94 in    
Wind  
Wind Speed 4 mph (SSE)    
Max Wind Speed 8 mph    
Max Gust Speed -    
Visibility 4 miles    
Events Fog , Rain    
T = Trace of Precipitation, MM = Missing Value Source: NWS Daily Summary

Daily Weather History Graph

Daily Weather History Graph

Search for Another Location

Airport:

Trip Planner

Search our weather history database for the weather conditions in past years. The results will help you decide how hot, cold, wet, or windy it might be!

Date:

Astronomy

Dec. 08, 2012 Rise Set
Actual Time 6:50 AM CST 4:55 PM CST
Civil Twilight 6:23 AM CST 5:22 PM CST
Nautical Twilight 5:52 AM CST 5:53 PM CST
Astronomical Twilight 5:22 AM CST 6:23 PM CST
Moon 1:29 AM CST (12/8) 1:13 PM CST (12/8)
Length of Visible Light 10h 59m
Length of Day
10h 05m
Waning Crescent, 28% of the Moon is Illuminated
Dec 8
Waning Crescent
Dec 13
New
Dec 19
First Quarter
Dec 28
Full
Jan 4
Last Quarter

Hourly Weather History & Observations

Time (CST) Temp. Dew Point Humidity Pressure Visibility Wind Dir Wind Speed Gust Speed Precip Events Conditions
12:12 AM 59.0 °F 57.2 °F 94% 29.93 in 1.0 mi SE 4.6 mph - N/A   Mist
12:19 AM 59.0 °F 57.2 °F 94% 29.93 in 1.8 mi ESE 4.6 mph - N/A   Partly Cloudy
12:37 AM 59.0 °F 57.2 °F 94% 29.93 in 0.5 mi SE 3.5 mph - N/A Fog Fog
12:45 AM 59.0 °F 59.0 °F 100% 29.93 in 0.2 mi SE 4.6 mph - N/A Fog Fog
12:53 AM 59.0 °F 57.9 °F 96% 29.91 in 0.2 mi SE 4.6 mph - N/A Fog Fog
1:34 AM 59.0 °F 57.2 °F 94% 29.93 in 0.2 mi Calm Calm - N/A Fog Fog
1:53 AM 59.0 °F 57.9 °F 96% 29.91 in 0.2 mi Calm Calm - N/A Fog Fog
2:53 AM 59.0 °F 59.0 °F 100% 29.91 in 0.2 mi Calm Calm - N/A Fog Fog
3:53 AM 60.1 °F 60.1 °F 100% 29.92 in 0.2 mi SSW 3.5 mph - N/A Fog Fog
4:00 AM 60.8 °F 60.8 °F 100% 29.94 in 0.2 mi Calm Calm - N/A Fog Fog
4:18 AM 60.8 °F 60.8 °F 100% 29.94 in 0.2 mi South 3.5 mph - N/A Fog Fog
4:53 AM 60.1 °F 60.1 °F 100% 29.93 in 0.2 mi South 4.6 mph - N/A Fog Fog
5:53 AM 60.1 °F 60.1 °F 100% 29.94 in 0.2 mi SSE 4.6 mph - 0.01 in Fog Fog
6:53 AM 60.1 °F 60.1 °F 100% 29.95 in 0.2 mi SE 3.5 mph - N/A Fog Fog
7:53 AM 61.0 °F 60.1 °F 97% 29.95 in 0.2 mi SSE 6.9 mph - N/A Fog Fog
8:53 AM 62.1 °F 61.0 °F 96% 29.96 in 0.2 mi SSE 6.9 mph - N/A Fog Fog
9:24 AM 62.6 °F 62.6 °F 100% 29.99 in 1.0 mi South 6.9 mph - N/A   Mist
9:53 AM 63.0 °F 62.1 °F 97% 29.97 in 1.8 mi SSE 8.1 mph - N/A   Overcast
10:02 AM 62.6 °F 62.6 °F 100% 29.99 in 2.0 mi SSE 6.9 mph - N/A   Overcast
10:12 AM 62.6 °F 62.6 °F 100% 29.99 in 4.0 mi SSE 5.8 mph - N/A   Overcast
10:53 AM 64.0 °F 62.1 °F 93% 29.96 in 8.0 mi SSW 3.5 mph - N/A   Overcast
11:34 AM 64.4 °F 62.6 °F 94% 29.96 in 8.0 mi SSW 4.6 mph - N/A   Overcast
11:53 AM 64.9 °F 61.0 °F 87% 29.94 in 8.0 mi South 8.1 mph - N/A   Overcast
12:53 PM 66.9 °F 62.1 °F 84% 29.91 in 10.0 mi SSW 4.6 mph - 0.00 in Rain Light Rain
1:53 PM 71.1 °F 62.1 °F 73% 29.90 in 10.0 mi South 5.8 mph - 0.00 in   Overcast
2:53 PM 71.1 °F 60.1 °F 68% 29.89 in 10.0 mi South 8.1 mph - N/A   Overcast
3:53 PM 69.1 °F 60.1 °F 73% 29.90 in 10.0 mi SSE 3.5 mph - N/A   Overcast
4:53 PM 66.0 °F 59.0 °F 78% 29.91 in 10.0 mi South 4.6 mph - N/A   Partly Cloudy
5:53 PM 64.9 °F 60.1 °F 84% 29.91 in 10.0 mi Calm Calm - N/A   Clear
6:53 PM 63.0 °F 60.1 °F 90% 29.93 in 10.0 mi Calm Calm - N/A   Clear
7:53 PM 64.0 °F 61.0 °F 90% 29.94 in 7.0 mi Calm Calm - N/A   Clear
8:53 PM 63.0 °F 61.0 °F 93% 29.93 in 8.0 mi SE 3.5 mph - N/A   Clear
9:53 PM 62.1 °F 60.1 °F 93% 29.94 in 7.0 mi SSE 3.5 mph - N/A   Clear
10:53 PM 61.0 °F 59.0 °F 93% 29.94 in 7.0 mi SSE 4.6 mph - N/A   Clear
11:53 PM 60.1 °F 59.0 °F 96% 29.93 in 7.0 mi SSE 3.5 mph - N/A   Clear